Weather History for Colby, KS

Change the Weather History Date:

Friday, August 31, 2012

  Actual Average (KGLD) Record (KGLD)
Temperature  
Mean Temperature 75 °F 71 °F  
Max Temperature 95 °F 85 °F 102 °F (1985)
Min Temperature 55 °F 57 °F 39 °F (1944)
Degree Days  
Heating Degree Days 0 1  
Month to date heating degree days 5  
Since 1 June heating degree days 49  
Since 1 July heating degree days 12  
Cooling Degree Days 10 7  
Month to date cooling degree days 279  
Year to date cooling degree days 833  
Since 1 June cooling degree days 792  
Growing Degree Days 25 (Base 50)    
Moisture  
Dew Point 50 °F    
Average Humidity 44    
Maximum Humidity 82    
Minimum Humidity 19    
Precipitation  
Precipitation 0.00 in 0.07 in 1.38 in (2006)
Month to date precipitation 2.70  
Year to date precipitation 15.90  
Snow  
Snow - 0.00 in - ()
Month to date snowfall 0.0  
Since 1 June snowfall 0.0  
Since 1 July snowfall 0.0  
Snow Depth -    
Sea Level Pressure  
Sea Level Pressure 30.07 in    
Wind  
Wind Speed 7 mph ()    
Max Wind Speed 15 mph    
Max Gust Speed 18 mph    
Visibility 10.0 miles    
Events      
T = Trace of Precipitation, MM = Missing Value Source: Averaged Metar Reports

Daily Weather History Graph

Daily Weather History Graph

Search for Another Location

Airport:

Trip Planner

Search our weather history database for the weather conditions in past years. The results will help you decide how hot, cold, wet, or windy it might be!

Date:

Astronomy

Aug. 31, 2012 Rise Set
Actual Time 7:12 AM CDT 8:15 PM CDT
Civil Twilight 6:44 AM CDT 8:43 PM CDT
Nautical Twilight 6:11 AM CDT 9:16 PM CDT
Astronomical Twilight 5:37 AM CDT 9:50 PM CDT
Moon 8:03 PM CDT (8/31) 7:18 AM CDT (8/31)
Length of Visible Light 13h 58m
Length of Day
13h 03m
Full, 100% of the Moon is Illuminated
Aug 31
Full
Sep 8
Last Quarter
Sep 15
New
Sep 22
First Quarter
Sep 29
Full

Hourly Weather History & Observations

Time (CDT) Temp. Dew Point Humidity Pressure Visibility Wind Dir Wind Speed Gust Speed Precip Events Conditions
12:15 AM 73.4 °F 46.4 °F 38% 30.06 in 10.0 mi South 9.2 mph - N/A   Clear
12:35 AM 73.4 °F 46.4 °F 38% 30.06 in 10.0 mi South 10.4 mph - N/A   Clear
12:55 AM 73.4 °F 48.2 °F 41% 30.06 in 10.0 mi South 10.4 mph - N/A   Clear
1:15 AM 71.6 °F 48.2 °F 43% 30.06 in 10.0 mi SSW 4.6 mph - N/A   Clear
1:35 AM 66.2 °F 50.0 °F 56% 30.06 in 10.0 mi SW 4.6 mph - N/A   Clear
1:55 AM 66.2 °F 50.0 °F 56% 30.06 in 10.0 mi SSW 5.8 mph - N/A   Clear
2:15 AM 64.4 °F 50.0 °F 59% 30.06 in 10.0 mi SSW 6.9 mph - N/A   Clear
2:35 AM 62.6 °F 50.0 °F 63% 30.06 in 10.0 mi SSW 5.8 mph - N/A   Clear
2:55 AM 62.6 °F 50.0 °F 63% 30.06 in 10.0 mi SW 8.1 mph - N/A   Clear
3:15 AM 59.0 °F 50.0 °F 72% 30.06 in 10.0 mi SW 5.8 mph - N/A   Clear
3:35 AM 60.8 °F 50.0 °F 68% 30.06 in 10.0 mi Calm Calm - N/A   Clear
3:55 AM 59.0 °F 50.0 °F 72% 30.06 in 10.0 mi SW 8.1 mph - N/A   Clear
4:15 AM 57.2 °F 50.0 °F 77% 30.06 in 10.0 mi SW 8.1 mph - N/A   Clear
4:35 AM 57.2 °F 50.0 °F 77% 30.05 in 10.0 mi WSW 9.2 mph - N/A   Clear
4:55 AM 55.4 °F 48.2 °F 77% 30.05 in 10.0 mi WSW 6.9 mph - N/A   Clear
5:15 AM 55.4 °F 48.2 °F 77% 30.06 in 10.0 mi WSW 6.9 mph - N/A   Clear
5:35 AM 57.2 °F 48.2 °F 72% 30.06 in 10.0 mi WSW 9.2 mph - N/A   Clear
5:55 AM 55.4 °F 48.2 °F 77% 30.06 in 10.0 mi WSW 6.9 mph - N/A   Clear
6:15 AM 57.2 °F 48.2 °F 72% 30.06 in 10.0 mi WSW 4.6 mph - N/A   Clear
6:35 AM 59.0 °F 48.2 °F 67% 30.06 in 10.0 mi SW 5.8 mph - N/A   Clear
6:55 AM 55.4 °F 46.4 °F 72% 30.07 in 10.0 mi SW 3.5 mph - N/A   Clear
7:15 AM 57.2 °F 48.2 °F 72% 30.07 in 10.0 mi WSW 5.8 mph - N/A   Clear
7:35 AM 55.4 °F 50.0 °F 82% 30.07 in 10.0 mi West 5.8 mph - N/A   Clear
7:55 AM 59.0 °F 50.0 °F 72% 30.08 in 10.0 mi West 8.1 mph - N/A   Clear
8:15 AM 60.8 °F 50.0 °F 68% 30.08 in 10.0 mi WNW 6.9 mph - N/A   Clear
8:35 AM 62.6 °F 50.0 °F 63% 30.08 in 10.0 mi West 4.6 mph - N/A   Clear
8:55 AM 68.0 °F 50.0 °F 52% 30.08 in 10.0 mi WSW 5.8 mph - N/A   Clear
9:15 AM 69.8 °F 50.0 °F 49% 30.08 in 10.0 mi WNW 5.8 mph - N/A   Clear
9:35 AM 73.4 °F 50.0 °F 44% 30.08 in 10.0 mi West 6.9 mph - N/A   Clear
9:55 AM 77.0 °F 51.8 °F 41% 30.09 in 10.0 mi WNW 3.5 mph - N/A   Clear
10:15 AM 80.6 °F 51.8 °F 37% 30.09 in 10.0 mi NW 3.5 mph - N/A   Clear
10:35 AM 82.4 °F 50.0 °F 32% 30.09 in 10.0 mi NNW 3.5 mph - N/A   Clear
10:55 AM 86.0 °F 50.0 °F 29% 30.09 in 10.0 mi NW 3.5 mph - N/A   Clear
11:15 AM 87.8 °F 50.0 °F 27% 30.09 in 10.0 mi West 3.5 mph - N/A   Clear
11:35 AM 87.8 °F 50.0 °F 27% 30.09 in 10.0 mi Calm Calm - N/A   Clear
11:55 AM 89.6 °F 50.0 °F 26% 30.09 in 10.0 mi Calm Calm - N/A   Clear
12:15 PM 89.6 °F 46.4 °F 22% 30.09 in 10.0 mi Calm Calm - N/A   Clear
12:35 PM 91.4 °F 46.4 °F 21% 30.09 in 10.0 mi East 5.8 mph - N/A   Clear
12:55 PM 91.4 °F 50.0 °F 24% 30.09 in 10.0 mi East 5.8 mph - N/A   Clear
1:15 PM 91.4 °F 50.0 °F 24% 30.09 in 10.0 mi South 9.2 mph - N/A   Clear
1:35 PM 93.2 °F 48.2 °F 21% 30.08 in 10.0 mi SE 9.2 mph - N/A   Clear
1:55 PM 95.0 °F 50.0 °F 22% 30.08 in 10.0 mi SE 10.4 mph 16.1 mph N/A   Clear
2:15 PM 93.2 °F 44.6 °F 19% 30.08 in 10.0 mi SE 8.1 mph 17.3 mph N/A   Clear
2:35 PM 95.0 °F 48.2 °F 20% 30.07 in 10.0 mi ESE 13.8 mph 17.3 mph N/A   Clear
2:55 PM 95.0 °F 46.4 °F 19% 30.07 in 10.0 mi ESE 5.8 mph 16.1 mph N/A   Clear
3:15 PM 95.0 °F 48.2 °F 20% 30.06 in 10.0 mi East 8.1 mph 17.3 mph N/A   Clear
3:35 PM 95.0 °F 48.2 °F 20% 30.06 in 10.0 mi ESE 11.5 mph 17.3 mph N/A   Clear
3:55 PM 95.0 °F 48.2 °F 20% 30.05 in 10.0 mi SE 12.7 mph - N/A   Clear
4:15 PM 95.0 °F 50.0 °F 22% 30.05 in 10.0 mi SE 11.5 mph 17.3 mph N/A   Clear
4:35 PM 95.0 °F 50.0 °F 22% 30.05 in 10.0 mi ESE 13.8 mph - N/A   Clear
4:55 PM 95.0 °F 46.4 °F 19% 30.04 in 10.0 mi ESE 12.7 mph 18.4 mph N/A   Clear
5:15 PM 95.0 °F 46.4 °F 19% 30.04 in 10.0 mi SE 15.0 mph - N/A   Clear
5:35 PM 93.2 °F 46.4 °F 20% 30.04 in 10.0 mi ESE 10.4 mph - N/A   Clear
5:55 PM 93.2 °F 48.2 °F 21% 30.04 in 10.0 mi ESE 12.7 mph - N/A   Clear
6:15 PM 91.4 °F 48.2 °F 23% 30.04 in 10.0 mi ESE 12.7 mph - N/A   Clear
6:35 PM 91.4 °F 50.0 °F 24% 30.04 in 10.0 mi ESE 11.5 mph - N/A   Clear
6:55 PM 89.6 °F 50.0 °F 26% 30.04 in 10.0 mi SE 9.2 mph - N/A   Clear
7:15 PM 89.6 °F 51.8 °F 27% 30.04 in 10.0 mi SE 9.2 mph - N/A   Clear
7:35 PM 86.0 °F 51.8 °F 31% 30.04 in 10.0 mi ESE 8.1 mph - N/A   Clear
7:55 PM 82.4 °F 51.8 °F 35% 30.05 in 10.0 mi ESE 8.1 mph - N/A   Clear
8:15 PM 78.8 °F 51.8 °F 39% 30.05 in 10.0 mi ESE 8.1 mph - N/A   Clear
8:35 PM 77.0 °F 53.6 °F 44% 30.06 in 10.0 mi East 9.2 mph - N/A   Clear
9:15 PM 71.6 °F 53.6 °F 53% 30.08 in 10.0 mi ESE 5.8 mph - N/A   Clear
9:35 PM 71.6 °F 53.6 °F 53% 30.09 in 10.0 mi SE 5.8 mph - N/A   Clear
9:55 PM 71.6 °F 51.8 °F 50% 30.10 in 10.0 mi SSE 5.8 mph - N/A   Clear
10:15 PM 71.6 °F 51.8 °F 50% 30.10 in 10.0 mi SSE 4.6 mph - N/A   Clear
10:35 PM 71.6 °F 51.8 °F 50% 30.10 in 10.0 mi SSE 6.9 mph - N/A   Clear
11:15 PM 73.4 °F 51.8 °F 47% 30.10 in 10.0 mi SSE 4.6 mph - N/A   Clear
11:35 PM 73.4 °F 51.8 °F 47% 30.11 in 10.0 mi South 6.9 mph - N/A   Clear
11:55 PM 68.0 °F 51.8 °F 56% 30.11 in 10.0 mi SSW 3.5 mph - N/A   Clear